Location: Aranbee
(34.0885°N, 118.2342°W)
Time: 03:28:02
(UTC+00:00)

Explorer 11/Cluster Stage 4 - Visible Passes

Search period start: 19 May 2021 00:00
Search period end: 29 May 2021 00:00
Orbit: 467 x 1257 km, 28.8° (Epoch: 18 May)

Date Brightness Start Highest point End Pass type
(mag) Time Alt. Az. Time Alt. Az. Time Alt. Az.
19 May 7.6 04:20:54 10° W 04:28:38 59° S 04:33:18 27° ESE visible
19 May 8.4 06:10:09 10° W 06:15:24 34° SW 06:15:24 34° SW visible
20 May 7.7 04:09:48 10° W 04:17:22 57° S 04:22:37 23° ESE visible
20 May 8.3 05:59:03 10° W 06:04:42 34° SW 06:04:42 34° SW visible
21 May 7.7 03:58:44 10° W 04:06:06 54° S 04:11:53 20° ESE visible
21 May 8.4 05:47:59 10° W 05:53:58 32° SW 05:53:58 32° SW visible
22 May 7.8 03:47:41 10° W 03:54:50 52° S 04:01:09 17° ESE visible
22 May 8.4 05:36:59 10° W 05:43:15 30° SSW 05:43:15 30° SSW visible
23 May 7.8 03:36:41 10° W 03:43:36 48° SSW 03:50:27 14° ESE visible
23 May 8.5 05:26:02 10° WSW 05:32:25 27° SSW 05:32:32 27° SSW visible
24 May 7.9 03:25:43 10° W 03:32:21 45° SSW 03:39:45 11° SE visible
24 May 8.6 05:15:11 10° WSW 05:21:07 24° SSW 05:21:50 24° SSW visible
25 May 8.0 03:14:47 10° W 03:21:08 41° SSW 03:28:28 10° SE visible
25 May 8.8 05:04:26 10° WSW 05:09:50 21° SSW 05:11:10 20° SSW visible
26 May 8.9 04:53:49 10° WSW 04:58:34 18° SSW 05:00:31 16° S visible
27 May 9.1 04:43:26 10° WSW 04:47:20 15° SSW 04:49:54 13° S visible
28 May 9.3 04:33:27 10° SW 04:36:07 12° SSW 04:38:54 10° S visible
